Regional Weather Roundup
Issued by NWS

Home | Current Version | Previous Version | Graphics & Text | Print | Product List | Glossary On
Versions: 1 2 3 4 5 6 7 8 9 10 11 12 13 14 15 16 17 18 19 20 21 22 23 24 25 26 27 28 29 30 31 32 33 34 35 36 37 38 39 40 41 42 43 44 45 46 47 48 49 50
000
ASUS43 KFSD 311002
RWRSD

WEATHER ROUNDUP FOR SOUTH DAKOTA
NATIONAL WEATHER SERVICE SIOUX FALLS SD
500 AM CDT TUE MAY 31 2016

NOTE: "FAIR" INDICATES FEW OR NO CLOUDS BELOW 12,000 FEET WITH NO
SIGNIFICANT WEATHER AND/OR OBSTRUCTIONS TO VISIBILITY.


SDZ001>005-009-010-012>017-311100-
NORTHWEST AND NORTH CENTRAL SOUTH DAKOTA

CITY           SKY/WX    TMP DP  RH WIND       PRES   REMARKS
BUFFALO          N/A     46  41  82 W21       29.88S
FAITH            N/A     48  35  60 W23G35    29.92R
MOBRIDGE       CLEAR     51  45  79 W8        29.84R
$$

SDZ012>016-024>037-041>051-057-063-072>074-311100-
SOUTHWEST AND SOUTH CENTRAL SOUTH DAKOTA

CITY           SKY/WX    TMP DP  RH WIND       PRES   REMARKS
RAPID CTY ARPT CLOUDY    46  32  58 W3        30.00F
PIERRE         CLEAR     50  46  86 W14       29.91S
CUSTER         CLEAR     41  28  60 NW8G18    30.04F
ELLSWORTH AFB  CLOUDY    46  34  62 W9        29.99F
PHILIP         CLEAR     47  41  80 W6        29.98R
PINE RIDGE     CLOUDY    45  41  86 CALM      30.05S
WINNER         FAIR      53  47  79 W9        29.96S
$$

SDZ004>011-016>023-039-040-311100-
NORTHEAST SOUTH DAKOTA

CITY           SKY/WX    TMP DP  RH WIND       PRES   REMARKS
ABERDEEN       CLOUDY    56  54  93 SW6       29.80R
WATERTOWN      CLOUDY    58  54  86 W13       29.81R
BROOKINGS      CLOUDY    59  56  89 W12       29.83R
SISSETON         N/A     60  57  89 W8        29.77R
$$

SDZ017-020-022-023-036>040-048>070-311100-
SOUTHEAST SOUTH DAKOTA

CITY           SKY/WX    TMP DP  RH WIND       PRES   REMARKS
SIOUX FALLS    LGT RAIN  62  59  90 W9        29.84R
HURON          PTCLDY    56  54  93 W9        29.87R
MITCHELL       PTCLDY    59  55  87 W12       29.89R
YANKTON        CLOUDY    61  55  82 W13       29.88R
$$

ABBREVIATIONS USED IN REMARKS
   TC - TEMPERATURE IN CELSIUS
  WCI - WIND CHILL INDEX
   HX - HEAT INDEX
  VSB - VISIBILITY





USA.gov is the U.S. government's official web portal to all federal, state and local government web resources and services.